ONEWEB-0634, 56075

Orbit data source: Space-Track

ONEWEB-0634, 56075 is a payload satellite owned by One Web (NAA) (UK) in LEO that was launched on Sun, 26 Mar 2023 UTC via a LVM3 launch vehicle from the Sirharikota (SRI). Payload-class satellites include a variety of spacecraft equipped with specific instruments for various scientific and technological missions. These include communications satellites like Starlink; space stations such as the ISS; scientific satellites like the Hubble; Earth observation satellites from companies like Planet Labs, Umbra, and HawkEye 360; GPS; miniature CubeSats for education and research; and military/defense satellites.

Loading next visibility...
Identifier
56075, 2023-043AF
Orbit
LEO
Country
Flag of UKUK
Related business
Manufacturer
One Web
Mission
Operational Commercial Communications
Bus & Motor
ARROW, Unknown motor
Mass
148 kg wet, ~140 kg dry
Launch date (UTC)
2023-03-26 (2 years ago)
Launch vehicle
LVM3
Launch site
Sirharikota (SRI)
Object type
Payload
Rocket body
Debris
Shape & HBR
Trap Box + 2 Pan, 2.5 m
Radar Cross Section
2.032 m², Medium (>0.1 m² and < 1m²)

Expand to show TLE details & history
Last TLE update: 14 hours ago

TLE from 14 hours ago
0 ONEWEB-0634
1 56075U 23043AF  25250.21563406 -.00000078  00000-0 -24115-3 0  9999
2 56075  87.9052 315.6918 0001863 107.7475 252.3859 13.15549630119190
Epoch: 2025-09-07T05:10Z
TLE epoch observation values (Epoch: 2025-09-07T05:10:30.782Z)
Latitude
-0.00001°
Longitude
-108.47476°
Altitude
1,205.09 km
Speed
7.251 km/s
True Right ascension
21h 02m 46s
True Declination
0° 00' 00"
Sunlit
Object was in full shadow at epoch
Visualization orbit readout
Latitude
Unknown
Longitude
Unknown
Altitude
Unknown
Speed
Unknown
Apparent Right ascension
Unknown
Apparent Declination
Unknown
Sunlit
N/A
Visualization observer readout
Local Sidereal Time
11:46:09
Azimuth
Unknown
Elevation
Unknown
Doppler factor
Unknown
Orbital elements
Apogee altitude
1,200.29 km
Perigee altitude
1,197.467 km
Semi-major axis
7,577.016 km
Eccentricity
0.00019
Inclination
87.9052°
RAAN
315.6918°
Arg. of periapsis
107.7475°
True anomaly
252.36555°
Mean anomaly
252.3859°
Eccentric anomaly
252.37573°
Mean motion
3.29076 °/min
Orbital period
109.4 mins
BSTAR
-0.00024115
Loading maneuver chart data...
Computing Atmospheric mass density...
Loading historical data...
Loading historical data...
Loading historical data...
Loading historical data...
Loading historical data...
Loading historical data...
Loading historical data...

Documentation

Showing up to 5 results
|